Location: Burla
(50.9568°N, 10.4983°E)
Time: 16:58:06
(UTC+00:00)

NOAA 12 - Pass Details

Date: 18 January 2026
Orbit: 793 x 813 km, 98.6° (Epoch: 16 February)

Event Time Altitude Azimuth Distance (km) Brightness Sun altitude
Rises 05:00:03 0° 12° (NNE) 3,307 7.3 -20.2°
Reaches altitude 10° 05:02:24 10° 10° (N) 2,373 6.5 -19.8°
Maximum altitude 05:07:34 63° 290° (WNW) 887 4.0 -19.0°
Drops below altitude 10° 05:12:42 10° 211° (SSW) 2,360 6.3 -18.2°
Sets 05:15:02 0° 208° (SSW) 3,287 7.1 -17.9°
